SCP
9 10 11 10 9 9 9 8 8 7 7 6 6 6 6 6 6 5 4 4 4 4 4 3 3 3 2 2 2 2 2 2 2 3 3 4 4 3 3 4 3 3 3
9 10 12 12 10 9 9 8 7 7 7 7 6 6 6 6 6 6 5 5 4 4 4 4 3 3 3 2 2 2 2 2 2 3 3 4 4 4 4 4 3 2 2
8 10 13 14 12 9 8 7 7 7 7 7 7 6 6 7 7 7 7 6 5 5 5 4 3 3 2 2 2 2 2 2 2 2 3 4 4 5 6 5 4 3 2
9 10 12 13 12 10 8 7 7 7 7 7 7 6 6 7 7 8 8 8 7 6 5 4 3 2 2 2 2 2 2 2 2 2 3 3 4 5 6 6 5 4 3
10 10 10 11 11 10 10 8 8 7 7 6 6 6 6 7 7 8 8 8 8 8 7 5 3 2 2 1 1 1 2 2 2 2 3 3 4 5 6 7 6 5 4
11 11 10 10 10 10 10 9 7 7 6 6 6 6 7 7 7 7 7 8 9 9 7 5 4 3 2 1 1 1 1 2 2 3 3 4 4 5 7 8 8 6 5
9 10 10 8 8 8 9 9 7 6 6 6 6 7 8 8 7 5 5 6 8 9 7 5 4 3 3 2 2 1 1 1 2 2 3 4 5 6 8 9 9 7 5
9 9 8 7 6 6 7 8 8 7 6 6 6 7 8 7 5 3 3 4 6 7 7 5 4 3 3 3 2 2 2 1 1 1 2 2 3 5 7 9 10 7 5
11 10 9 8 8 7 7 7 8 8 7 7 8 9 9 6 4 2 2 3 4 5 5 4 4 3 3 3 2 2 2 2 2 1 1 1 1 2 4 7 8 7 4
14 13 12 11 11 10 9 10 10 10 9 9 9 9 9 6 3 1 1 2 3 3 3 3 3 3 2 2 2 2 3 3 3 2 2 1 1 1 2 4 6 5 3
15 14 14 14 15 15 14 12 11 10 9 9 9 9 8 6 3 2 1 1 2 2 2 2 2 2 1 1 2 2 2 3 3 3 2 2 1 1 1 2 3 3 2
14 14 14 15 17 18 16 12 9 9 8 9 9 7 6 6 4 2 1 1 1 2 2 2 2 1 1 1 1 1 2 2 3 3 3 2 2 2 2 2 2 2 3
13 12 12 13 15 16 14 10 7 7 8 8 8 6 5 5 4 3 2 1 1 1 2 2 1 1 1 1 1 1 1 2 2 3 3 2 2 3 3 3 3 3 3
11 10 10 10 10 11 11 9 8 8 8 7 6 5 4 4 4 4 3 2 1 2 2 2 2 1 1 2 2 2 2 2 2 3 3 3 3 3 4 4 4 4 4
9 9 8 6 6 8 9 9 8 7 6 5 5 5 4 4 4 4 4 4 3 2 2 3 2 2 2 3 3 3 3 3 3 3 3 3 3 3 4 5 5 5 4
9 8 6 5 5 6 7 7 7 5 4 3 3 4 4 3 3 2 3 3 3 2 2 3 3 3 3 3 3 4 4 3 3 3 3 3 3 3 4 4 4 4 4
8 7 6 5 5 5 5 5 6 5 3 1 1 2 2 2 1 1 1 1 2 1 2 3 3 3 3 3 4 4 4 4 4 4 3 3 3 3 3 4 4 4 4
7 6 5 5 5 4 4 4 5 6 5 2 1 1 1 1 0 0 1 1 2 1 2 3 3 3 3 3 4 4 4 4 4 4 3 3 2 2 3 3 3 3 3
7 6 5 5 5 4 4 3 4 5 5 3 2 1 1 0 0 0 1 2 3 2 2 2 2 2 3 3 4 5 5 4 4 3 3 3 2 2 2 2 2 2 2
9 7 5 5 5 5 5 4 4 4 4 4 3 2 1 1 1 1 1 2 3 3 2 2 2 2 3 3 4 4 4 4 3 3 2 2 2 1 2 2 2 1 1
10 9 7 6 7 8 7 6 4 3 3 4 4 3 2 1 1 1 1 2 2 3 2 2 3 3 3 3 4 4 3 3 3 3 2 2 2 2 2 2 1 1 1
12 11 10 9 9 9 7 5 3 2 2 3 3 2 2 2 2 2 2 2 3 3 2 2 3 3 3 3 3 3 2 2 3 3 3 3 3 3 2 2 1 1 1
14 14 12 11 10 7 4 3 2 2 1 2 2 2 2 2 2 3 3 3 3 3 3 3 2 3 3 3 2 2 1 1 2 3 4 4 3 3 2 2 1 1 1
13 12 10 10 8 4 1 1 2 2 2 3 2 2 2 2 2 3 3 3 3 3 3 3 2 2 2 2 2 1 1 1 1 2 3 3 3 3 2 2 1 1 1
8 7 6 5 4 2 1 1 2 2 3 3 3 3 2 2 2 2 3 2 2 2 2 2 2 2 2 2 2 1 0 0 0 1 1 2 2 2 2 1 1 0 0
4 4 3 2 2 1 1 2 2 3 3 3 3 3 3 3 2 2 2 2 2 2 2 1 1 2 2 2 2 1 0 0 0 0 1 1 1 1 1 1 0 0 0
Wind_Speed
4 3 2 3 2 2 1 1 0 0 0 1 0 0 1 0 0 1 2 1 1 2 2 1 1 1 2 2 2 1 1 1 1 1 0 0 1 1 0 1 2 2 3
3 3 3 3 2 2 2 1 1 1 1 1 1 1 2 1 1 1 2 2 2 2 2 1 2 2 2 2 2 1 1 1 1 2 1 0 0 1 1 1 1 2 2
3 2 2 3 2 2 1 1 1 1 1 1 1 2 2 1 1 2 2 2 2 2 2 2 2 2 2 2 2 2 1 1 1 1 1 1 1 1 0 1 1 0 2
2 2 2 2 2 2 2 1 1 1 2 2 1 2 2 2 2 2 2 2 3 3 2 2 1 1 1 2 2 1 1 1 1 1 1 1 1 1 1 1 1 0 1
2 2 2 2 2 2 2 1 1 2 2 2 2 3 3 2 2 2 2 3 3 3 2 2 2 1 1 1 2 1 1 1 1 1 1 1 1 1 1 1 1 1 1
2 2 1 1 1 2 1 1 2 2 2 2 2 2 2 2 1 1 2 3 3 3 3 2 2 2 1 2 1 1 1 2 2 1 2 2 2 2 1 2 1 1 1
1 1 1 1 1 1 2 2 2 2 2 2 2 2 1 1 1 1 2 3 3 3 2 2 3 2 2 1 2 2 2 3 3 2 2 3 2 2 2 2 2 2 2
1 1 1 1 2 2 2 2 2 2 2 2 3 2 2 2 2 1 2 4 3 2 2 2 2 2 1 1 2 2 2 3 4 4 3 3 2 1 2 2 2 2 2
1 1 2 2 2 2 2 2 2 2 2 2 2 2 2 2 2 2 2 3 3 3 3 3 3 3 2 2 2 2 2 2 3 3 3 2 2 3 2 1 1 2 2
1 1 2 2 3 3 2 2 2 2 2 2 2 2 2 2 2 2 2 3 3 2 2 2 3 3 3 4 3 3 3 2 2 1 1 2 3 3 3 3 2 2 2
1 2 2 2 2 2 2 2 2 2 2 2 2 2 2 3 3 3 3 3 2 2 2 1 1 3 4 4 4 3 4 2 2 2 2 2 2 2 2 2 2 2 2
1 2 2 2 3 2 2 3 2 2 2 3 3 2 2 2 2 3 4 4 4 3 2 1 1 3 4 5 5 5 5 3 2 2 2 2 2 2 2 2 2 2 3
1 2 2 2 2 1 2 3 3 3 3 2 2 2 2 1 1 2 3 4 4 3 2 2 2 3 4 4 6 6 5 3 3 2 2 2 2 2 1 1 1 2 3
2 3 2 2 2 1 2 2 2 1 1 1 2 2 1 1 1 1 1 2 2 2 2 3 3 4 4 3 3 4 4 3 3 2 2 2 1 1 1 1 1 1 2
3 3 3 2 1 1 1 1 2 1 2 2 2 1 1 1 0 1 2 2 1 2 2 2 2 2 2 2 2 2 3 2 2 2 1 1 1 1 1 1 1 1 1
4 3 3 2 2 2 2 1 1 2 2 3 2 2 1 1 1 2 2 2 3 2 2 2 2 2 2 2 2 2 2 2 2 2 2 1 1 1 1 1 1 1 1
4 3 3 2 2 2 2 2 2 1 1 2 3 3 3 2 2 2 2 2 3 3 3 2 2 2 2 2 2 2 2 2 1 1 1 1 1 1 1 1 1 1 1
4 4 3 3 3 3 3 3 2 2 2 2 3 4 5 5 4 3 2 1 1 1 2 2 2 1 1 1 1 1 1 1 1 1 1 1 1 1 1 1 1 1 1
4 3 3 3 3 3 3 3 3 3 2 2 2 3 4 4 3 3 2 2 2 1 1 1 1 1 1 1 0 0 0 1 1 1 1 1 1 1 1 1 1 1 2
3 5 4 4 4 3 3 2 2 1 1 2 2 2 3 3 2 3 3 3 2 2 2 1 1 1 1 1 1 1 0 1 1 1 1 1 1 1 2 2 2 2 2
3 3 5 4 4 3 2 2 2 1 2 2 1 3 5 4 3 3 3 3 3 2 1 1 1 1 1 1 1 1 1 1 1 1 2 2 1 1 2 2 2 2 1
3 3 3 4 3 2 2 2 2 2 2 2 1 3 5 3 2 2 2 2 1 1 0 1 1 1 1 1 1 0 0 1 1 1 1 1 1 1 1 1 1 1 1
4 4 4 3 2 2 3 2 2 2 1 1 1 1 2 2 1 1 1 1 1 1 1 0 0 0 1 1 1 1 0 1 1 1 1 1 1 1 2 2 2 1 2
4 4 3 2 1 1 2 2 2 1 1 1 1 1 2 2 1 1 1 1 1 1 1 1 0 1 2 2 1 1 1 1 2 1 1 2 2 2 2 2 2 2 2
3 3 2 2 2 2 2 2 1 1 1 2 1 1 1 1 1 1 1 1 1 1 1 1 1 1 2 2 2 2 2 2 1 1 1 2 2 2 2 2 2 1 2
3 3 2 2 2 3 2 2 1 1 1 1 0 1 1 1 0 0 0 0 1 1 1 1 1 1 1 2 3 3 2 3 2 2 2 2 2 2 2 2 2 1 2
Wind_Direction
181 179 187 185 209 214 230 267 242 270 187 184 194 267 265 242 255 280 291 288 292 294 295 310 309 317 311 307 314 294 262 212 220 257 274 357 100 99 120 165 173 164 166
168 177 185 173 194 212 218 235 239 223 222 205 209 230 260 245 232 250 265 274 267 275 289 297 296 299 307 309 313 304 276 228 197 230 235 238 205 170 211 234 216 187 163
160 169 181 190 193 201 215 223 238 238 238 230 224 238 248 257 250 260 261 272 270 266 262 266 280 292 296 309 295 293 275 251 201 205 233 225 244 203 204 281 273 195 191
154 166 174 200 205 205 203 196 228 242 247 244 236 255 247 248 262 269 271 260 263 267 260 249 261 262 278 287 271 276 273 265 243 226 226 229 219 212 187 224 256 235 256
154 173 187 191 209 203 194 194 217 238 243 241 236 245 246 235 251 257 268 259 257 261 259 244 242 214 218 257 273 267 249 235 243 242 241 233 226 213 231 239 236 216 259
166 180 195 194 225 214 193 195 213 226 235 242 240 239 251 263 302 284 267 276 260 252 253 254 245 201 202 219 252 281 262 233 235 236 253 239 239 235 244 244 238 219 242
180 167 159 197 227 223 219 206 216 217 228 244 251 242 235 255 273 306 295 271 256 250 248 249 262 243 180 209 226 245 259 260 238 235 238 246 248 241 232 239 232 240 243
197 206 196 209 223 235 234 221 224 220 233 243 254 241 227 247 243 251 288 260 257 247 235 233 234 251 225 229 231 232 242 248 232 221 231 252 254 237 235 238 224 222 242
219 234 225 221 232 234 244 234 230 234 236 235 244 234 226 231 249 256 263 262 251 246 237 224 212 210 220 210 211 227 254 266 255 227 213 229 237 232 227 220 232 223 246
232 253 238 231 231 234 243 241 233 229 230 232 237 240 233 218 227 239 244 255 263 256 239 213 198 198 201 205 213 220 239 260 282 276 218 221 220 219 218 206 214 227 247
226 246 246 242 234 223 245 243 240 236 229 232 229 233 232 220 208 218 230 243 266 279 261 231 196 190 212 221 221 222 230 255 268 247 236 219 219 221 217 214 208 212 234
249 253 257 249 252 231 233 240 231 233 234 231 228 241 246 213 189 211 226 240 255 259 259 250 216 209 217 224 226 223 224 235 248 244 236 233 220 223 224 213 207 210 220
263 267 266 255 242 237 240 243 224 222 237 245 241 248 244 196 179 213 225 246 255 254 276 282 262 234 226 226 223 216 211 218 229 236 234 235 231 221 209 202 207 213 229
259 264 250 243 234 222 255 266 262 255 258 268 267 274 275 194 159 265 241 242 250 255 280 273 248 238 228 235 224 210 212 216 216 224 234 224 217 226 205 190 209 223 228
266 258 250 249 245 230 229 272 273 275 225 231 255 263 274 284 261 281 262 263 279 275 281 260 243 234 228 220 221 214 210 205 212 226 223 210 207 217 240 244 224 237 234
258 253 253 252 244 236 222 242 279 225 203 193 198 206 267 176 204 256 258 258 257 241 217 233 244 239 243 236 219 210 210 209 207 213 211 206 210 213 229 255 251 226 245
253 251 256 257 255 249 229 221 222 200 202 217 219 206 211 226 241 255 259 287 278 219 207 224 235 248 247 229 222 231 228 211 187 197 209 215 217 220 221 236 244 239 262
247 247 248 251 254 249 244 237 224 222 204 212 219 212 214 222 228 236 242 311 288 210 228 234 243 252 256 243 225 227 213 187 177 190 206 226 239 238 240 233 228 225 243
244 250 253 253 254 248 246 245 233 235 221 201 177 177 203 218 226 234 218 239 249 249 266 279 260 249 236 214 187 161 185 185 186 189 199 213 236 245 254 255 242 244 247
235 232 246 263 263 257 245 245 246 239 235 204 197 168 164 190 208 210 214 236 246 247 249 258 259 254 198 181 181 176 204 189 190 206 218 222 229 236 239 242 246 242 235
244 224 233 252 257 259 255 255 253 255 256 251 211 166 173 201 213 201 196 207 230 245 245 244 240 189 179 164 161 167 185 210 206 221 231 226 231 241 244 240 237 243 243
262 238 227 245 252 251 251 256 260 242 247 258 226 167 185 223 223 202 197 195 210 217 218 228 232 179 158 145 134 138 228 247 249 236 250 263 263 258 266 262 257 261 269
260 252 236 237 251 237 236 245 256 257 249 245 224 181 187 225 234 189 183 181 162 176 180 216 249 162 110 107 106 97 352 315 301 278 268 265 271 270 260 249 243 246 249
261 263 259 247 231 239 243 245 260 270 275 274 233 208 204 212 224 207 180 169 175 181 159 150 122 76 72 65 70 83 64 26 335 327 315 280 274 270 267 252 251 256 255
258 260 258 251 247 248 241 239 258 291 299 297 300 264 251 241 242 209 167 173 174 172 143 124 113 103 96 70 52 52 75 68 39 351 296 271 274 279 267 256 249 252 260
255 256 246 243 251 243 232 219 226 237 256 268 294 308 293 269 224 179 139 163 185 146 127 116 105 101 102 96 80 71 66 55 36 355 304 273 267 270 269 261 261 246 237